Dewpoint
49 49 49 50 50 50 50 50 50 50 50 49 50 51 52 51 51 51 51 50 50 50 49 49 49 50 50 51 51 51 51 46 44 42 42 45 49 53 51 53 55 53 57 31 24 25 28 29 28 28 27 27 29 28 24 19 17 18 17 14 14 15 15 15 15 15 15 14 15 16 21 22 21 22 22 22 22 22 19 16 43 55 57 60 61 61 60 61
49 49 48 49 49 50 51 51 51 51 51 51 51 52 52 51 51 51 51 50 49 49 49 49 49 50 50 50 51 51 49 44 42 41 41 50 53 52 53 56 54 54 49 29 27 29 27 25 26 26 24 24 27 26 23 16 16 16 17 16 13 14 15 16 15 15 15 14 15 15 18 18 19 21 22 21 22 22 22 20 51 59 60 60 61 60 60 62
50 50 50 50 51 51 51 51 51 51 51 51 51 51 52 52 52 51 51 50 50 50 49 49 49 49 50 50 51 51 47 43 41 40 48 53 52 52 53 54 54 54 40 31 30 28 27 26 25 24 26 23 22 22 20 15 14 14 16 15 15 14 14 15 16 15 15 15 14 14 17 18 20 21 26 21 21 23 22 22 26 58 59 60 60 60 60 63
50 51 51 51 51 51 50 50 50 50 50 50 51 51 51 52 52 51 51 51 50 50 50 49 48 49 50 50 51 49 44 41 36 41 45 53 52 52 53 52 50 48 35 33 30 27 26 25 24 23 26 29 23 20 18 14 12 12 14 15 15 15 14 14 15 16 16 15 14 14 15 19 20 21 22 21 20 22 23 24 23 41 59 60 60 60 61 63
49 50 50 51 51 51 50 49 49 50 49 49 50 50 50 50 50 51 51 51 50 50 49 49 49 49 49 50 51 46 42 37 34 44 48 51 51 52 50 50 49 41 35 33 31 28 26 24 22 20 26 29 30 21 16 14 12 10 11 14 15 15 14 14 15 16 15 16 15 13 12 17 22 22 22 21 19 17 21 24 24 21 60 60 60 61 62 63
50 50 50 51 50 51 50 50 50 48 49 49 49 50 50 50 50 50 50 50 51 50 49 49 49 48 49 50 47 43 41 23 41 43 51 53 49 52 54 52 51 45 37 31 26 22 20 20 20 18 21 28 29 28 17 13 12 8 9 10 13 15 14 15 14 14 15 15 15 13 13 14 20 21 20 20 20 21 19 21 19 21 60 61 61 62 62 64
49 50 50 50 51 50 50 50 50 49 48 49 49 50 49 50 50 50 51 50 50 50 49 50 49 48 48 49 44 42 39 37 37 45 54 53 52 52 55 54 50 43 33 28 22 16 16 18 18 19 19 23 27 28 29 15 10 9 8 9 10 13 14 15 14 14 15 15 15 13 14 13 13 18 20 20 21 21 21 17 23 55 60 61 61 63 63 64
48 48 49 50 50 50 49 49 50 50 49 49 50 51 50 50 49 50 50 50 50 50 49 49 49 48 48 43 41 38 37 35 38 46 55 53 53 50 51 45 36 32 27 20 17 15 15 16 18 19 21 22 24 26 27 26 17 7 7 8 9 10 12 14 14 14 13 13 14 14 14 13 13 12 17 20 20 20 20 27 51 60 61 62 62 63 64 65
49 49 49 50 50 49 49 49 50 50 50 50 50 51 51 51 50 49 49 49 50 49 49 49 48 48 49 43 39 37 36 31 41 44 47 48 49 40 44 32 27 20 18 17 18 17 16 16 17 19 20 23 24 23 23 21 18 15 6 7 7 8 10 12 13 13 13 12 13 14 14 14 14 13 11 17 18 19 18 18 55 60 61 62 63 63 64 65
49 49 49 49 49 49 49 48 50 50 50 50 51 51 50 51 50 51 49 49 50 49 50 49 49 48 43 40 38 34 35 29 36 42 37 40 38 28 27 25 24 21 17 15 15 16 17 17 17 18 17 18 22 23 21 19 18 15 11 8 6 6 7 9 11 12 12 13 13 12 13 14 15 13 12 27 35 18 17 26 58 59 59 62 63 63 64 65
48 48 48 48 49 49 49 49 49 49 50 50 50 50 51 50 51 50 49 50 50 50 49 49 48 46 41 38 35 32 32 27 33 32 30 28 26 26 27 26 24 20 18 18 18 19 19 18 17 15 15 15 19 21 21 19 16 14 13 13 11 9 6 5 7 11 12 12 13 12 11 12 12 12 12 15 33 45 33 40 58 58 59 62 63 64 64 65
49 49 48 48 49 49 49 49 50 50 49 50 50 50 50 50 50 50 49 50 51 50 49 48 48 43 42 40 38 36 34 35 34 33 31 28 26 27 27 26 23 20 17 17 17 18 18 17 16 14 14 19 19 20 20 20 17 14 12 10 10 10 8 5 3 6 10 10 11 11 11 11 12 11 13 14 19 37 44 49 52 56 60 62 63 64 64 64
49 48 48 48 48 48 49 49 49 49 50 50 50 50 50 50 50 50 50 50 50 50 49 49 47 43 41 38 37 39 38 37 36 36 33 29 27 27 27 26 24 21 17 16 17 16 14 14 16 15 15 15 16 17 20 21 20 18 12 11 10 9 8 7 4 4 5 6 10 11 9 10 11 11 16 24 21 29 34 33 50 54 58 62 63 64 65 65
48 48 48 48 49 49 49 48 49 48 49 49 49 49 50 50 51 51 51 51 51 51 50 50 47 43 40 37 36 35 35 35 34 33 32 30 26 24 25 27 25 21 18 17 17 16 16 17 16 16 18 18 17 21 20 20 20 18 15 11 11 9 7 7 5 3 3 4 7 12 10 10 12 13 19 22 35 27 24 23 36 53 57 62 63 65 65 65
48 48 48 49 49 49 48 48 48 49 49 49 49 50 50 50 51 51 51 51 51 51 51 49 46 43 39 38 40 39 51 43 38 37 35 31 28 23 24 24 23 20 18 19 19 20 18 17 16 14 16 21 22 21 20 20 20 21 16 11 11 10 9 6 8 4 2 3 4 9 10 10 11 13 19 22 27 41 26 27 37 49 54 59 63 64 65 65
48 48 49 48 48 48 48 48 48 48 49 49 49 49 50 50 51 51 51 51 51 52 51 42 42 42 38 35 35 43 39 38 38 38 34 30 24 19 21 20 17 16 19 18 20 20 19 16 14 14 16 19 20 20 19 19 20 21 20 15 10 10 9 7 6 5 3 2 3 5 6 10 11 13 16 17 22 27 28 30 33 48 51 56 61 63 65 65
47 48 48 47 47 47 47 48 49 48 49 49 49 50 50 50 51 51 51 51 50 46 47 40 40 42 36 31 35 29 25 30 32 24 24 24 21 18 15 16 15 14 14 16 18 18 17 17 18 17 15 16 19 19 18 18 19 20 21 19 14 9 9 7 6 5 4 2 2 3 3 6 10 12 12 18 16 19 22 26 36 45 47 52 60 62 63 64
47 47 47 47 47 47 47 48 48 48 49 49 49 49 48 49 50 50 49 50 49 43 41 42 40 39 37 38 34 31 24 22 22 20 21 21 19 17 17 15 15 14 12 10 9 13 16 15 16 14 17 16 16 17 17 16 19 20 21 20 16 11 10 8 6 5 4 4 3 3 3 4 6 12 15 19 24 22 17 25 24 38 44 48 57 59 61 63
47 47 47 47 47 47 47 48 48 49 49 49 49 49 49 51 51 47 45 44 43 40 38 39 39 28 20 27 35 32 25 25 25 20 19 20 19 17 17 18 14 12 8 6 7 8 13 14 17 16 13 15 15 15 16 16 17 18 19 19 16 13 10 9 9 8 4 3 2 3 3 4 6 8 15 22 26 20 18 20 26 36 43 46 55 57 59 61
47 47 46 46 47 47 48 47 48 49 49 48 46 45 45 38 38 42 42 43 40 39 37 35 38 35 33 32 31 31 31 29 25 22 19 19 21 19 16 17 17 15 10 9 8 9 13 13 12 12 13 13 14 14 14 15 15 15 17 17 16 13 10 10 10 9 8 5 3 3 4 4 5 7 10 17 26 20 18 17 23 31 38 43 53 56 57 59
46 46 46 47 47 47 47 47 48 48 49 47 46 44 33 32 31 31 34 34 34 33 32 32 31 30 28 28 28 27 25 24 24 23 23 24 21 21 20 20 18 15 12 10 9 11 11 13 14 11 12 13 14 14 14 13 13 12 11 11 11 11 10 10 9 10 10 6 3 4 4 6 5 7 10 11 20 26 21 19 20 21 36 39 46 54 56 56
46 46 46 46 46 46 47 47 47 48 48 46 45 44 33 35 37 37 36 33 35 35 35 33 33 32 32 30 29 28 27 26 25 24 25 24 21 19 21 18 16 11 12 11 12 12 10 12 13 12 11 12 13 13 11 11 10 10 10 9 8 7 7 10 9 8 8 7 8 5 3 3 5 5 10 13 13 19 27 24 21 21 26 38 40 48 55 56
45 45 46 45 46 46 46 47 47 48 46 44 45 42 35 37 37 39 38 36 35 35 34 34 33 33 32 31 30 28 23 24 24 23 22 21 19 19 19 17 16 13 10 10 10 13 10 6 7 13 12 11 11 11 10 9 10 10 8 8 7 6 5 7 11 10 7 8 9 9 7 7 8 7 7 16 13 16 32 34 30 27 21 31 38 45 54 57
45 45 45 46 46 46 47 47 47 47 46 44 43 39 37 38 39 39 37 33 32 33 32 32 31 30 30 29 27 27 23 22 22 21 24 20 17 19 18 17 15 13 10 8 7 4 3 4 4 5 10 11 10 11 10 10 9 10 8 6 6 6 6 6 7 9 8 6 6 5 7 9 11 10 10 14 19 17 23 36 32 29 31 30 41 44 54 58
45 45 45 45 46 47 46 47 46 44 43 42 37 37 39 40 41 40 36 34 33 32 33 32 31 29 28 31 24 21 22 23 22 21 20 17 15 16 15 15 13 11 11 10 7 4 2 1 4 3 6 10 11 10 10 9 9 9 9 7 5 5 6 6 7 7 8 8 6 5 4 5 10 10 9 11 14 17 16 16 24 25 29 35 37 42 54 58
45 45 46 46 46 46 47 44 44 44 43 42 39 40 40 41 42 41 37 32 28 29 29 23 28 17 20 23 23 22 20 17 18 18 21 19 22 17 14 12 12 10 10 9 7 8 4 6 3 1 2 6 10 10 10 10 9 10 7 8 6 5 5 5 6 5 6 7 7 6 4 5 11 10 10 11 10 11 17 16 15 19 28 34 36 42 56 58
45 45 45 46 46 46 43 42 44 44 41 42 42 42 41 42 45 41 35 29 24 31 24 18 18 21 22 21 22 20 18 20 20 21 20 22 19 16 12 16 15 12 10 19 12 4 3 3 3 3 2 2 3 9 9 9 10 9 8 7 7 6 5 4 4 3 6 9 9 6 5 4 5 11 11 12 10 9 11 16 15 16 31 34 35 48 58 59
46 46 46 46 46 46 43 44 43 43 42 43 43 42 43 44 43 41 33 18 19 26 19 22 22 25 24 25 22 19 18 19 18 19 21 23 24 18 15 14 15 15 16 10 7 8 8 2 2 1 2 1 -1 3 9 9 8 9 9 7 6 6 6 4 3 3 8 10 8 10 7 3 2 12 13 13 12 11 11 12 15 20 34 34 36 53 58 60
46 46 46 47 47 47 47 44 44 44 44 45 45 43 45 43 42 35 27 18 30 25 26 24 24 26 32 32 30 30 30 30 24 22 21 23 23 26 17 16 17 17 17 16 12 12 15 12 4 1 0 0 0 -0 -0 7 7 8 9 10 9 5 5 4 3 4 8 10 11 10 10 4 1 7 14 12 10 11 10 11 14 22 36 36 36 52 58 60
46 47 47 48 46 47 45 46 45 46 47 47 45 43 43 42 37 30 28 22 34 26 31 27 31 30 33 31 31 36 33 32 36 33 31 26 26 29 28 27 17 19 16 15 12 11 14 19 20 13 9 7 4 0 -1 -2 3 6 8 8 8 7 5 9 8 6 8 11 10 10 10 7 2 5 12 15 13 11 12 14 15 22 34 36 36 53 55 59
47 47 48 48 44 45 46 45 46 48 46 44 43 44 42 39 29 24 20 28 28 31 33 33 31 33 32 32 31 34 32 31 30 33 32 32 33 31 28 25 26 22 19 16 15 14 11 9 10 10 13 9 5 2 2 1 1 1 5 5 6 6 7 8 10 8 8 8 8 9 9 9 8 10 7 16 17 12 13 13 15 22 30 35 36 54 55 58
47 48 48 47 46 47 45 44 45 45 47 46 44 41 38 28 31 21 21 35 25 30 32 32 34 34 34 34 34 34 34 33 32 30 29 31 31 30 29 25 26 20 19 19 16 14 12 12 10 9 16 10 3 2 2 2 3 1 4 8 10 9 7 11 7 10 9 6 8 8 9 9 9 12 13 11 14 13 13 12 13 18 25 31 34 55 58 58
47 48 49 48 48 46 46 47 48 47 47 46 44 40 31 26 21 26 28 29 24 35 33 36 34 34 34 34 33 33 33 32 34 32 31 32 31 30 29 30 31 26 18 24 20 20 14 11 11 9 9 10 4 1 2 3 4 3 1 8 10 9 9 9 10 8 9 8 7 9 11 10 17 13 14 9 11 15 15 14 13 15 24 28 36 56 58 59
47 47 46 47 46 47 48 49 48 46 46 45 42 35 31 26 24 31 30 29 30 36 35 35 35 35 34 32 32 32 32 34 32 31 31 30 30 27 28 29 31 28 25 25 21 19 15 14 10 9 7 4 1 1 2 2 4 3 2 7 11 10 9 10 9 10 9 14 14 9 9 15 16 16 14 13 15 12 13 13 13 22 27 29 38 56 59 59
47 47 48 48 47 47 48 46 47 47 45 43 38 32 27 26 28 28 28 32 35 36 35 36 34 33 32 32 32 32 34 30 33 29 31 29 27 26 25 26 31 28 27 24 23 21 17 17 16 9 6 2 0 2 3 1 2 4 9 9 9 10 16 11 16 16 15 12 16 17 17 19 13 19 16 10 8 12 16 13 17 33 32 31 34 56 57 59
46 47 48 48 49 48 47 50 47 46 43 40 33 27 25 28 26 32 32 37 36 34 34 35 34 31 29 27 31 29 35 31 32 32 29 26 26 25 25 27 31 29 26 23 25 18 17 15 15 11 10 6 3 4 3 3 10 16 6 9 9 10 9 17 19 25 23 14 19 15 21 18 16 15 13 17 8 8 9 12 18 32 34 34 33 51 56 58
43 45 46 47 47 46 46 46 46 44 42 39 32 27 30 33 35 36 38 35 35 38 33 28 29 29 28 27 28 28 31 32 32 31 25 27 26 24 25 24 29 32 29 26 25 26 17 17 16 13 13 17 14 10 7 4 4 5 12 10 11 12 15 22 18 17 16 16 15 18 13 13 11 12 14 13 15 11 9 11 22 34 34 34 34 43 54 57
43 43 46 45 44 43 45 45 44 43 42 37 30 33 35 32 37 36 42 38 38 37 32 30 30 31 29 29 28 28 29 28 29 28 25 27 24 28 25 24 28 29 31 28 24 24 21 15 15 13 12 13 15 14 9 7 5 6 11 19 15 19 14 13 16 19 14 14 13 13 12 11 11 20 15 11 14 15 12 15 29 32 34 35 35 37 54 57
44 44 43 42 43 44 45 46 45 41 38 33 29 29 34 33 32 37 40 42 39 35 30 31 30 32 32 30 29 29 29 27 29 23 22 23 19 24 18 15 21 24 28 28 23 23 27 17 19 18 16 22 20 13 11 6 6 10 13 16 21 28 22 18 18 21 19 20 14 11 11 12 22 14 20 15 21 16 11 15 27 32 34 35 36 38 55 57
44 43 41 43 43 46 47 46 43 40 35 30 29 29 35 34 29 32 32 38 35 32 30 31 34 31 32 31 30 29 29 28 29 26 23 23 20 24 19 15 24 16 16 18 18 19 27 24 16 20 26 26 19 11 7 11 11 12 19 20 21 27 20 18 20 14 19 18 18 16 15 15 17 19 21 20 18 20 19 19 25 33 34 35 37 44 55 57
44 42 42 45 44 45 45 43 38 34 33 34 35 34 35 30 31 32 39 42 41 41 35 33 33 31 32 31 30 30 29 28 28 26 23 21 19 19 16 15 20 28 19 14 15 30 29 28 23 26 25 25 23 14 9 12 13 15 22 21 20 19 21 18 18 13 12 15 20 15 17 21 23 18 18 22 23 21 30 22 25 33 35 37 40 51 56 59
42 39 42 46 45 45 43 37 38 38 34 32 31 31 28 36 31 32 35 41 40 37 39 37 36 35 33 32 32 30 30 29 27 25 21 22 14 13 15 22 22 21 20 21 28 35 37 36 28 26 24 24 24 17 12 13 14 15 18 18 19 21 23 20 19 20 15 12 14 19 18 20 27 24 19 18 30 23 33 32 30 35 37 38 45 55 57 59
40 38 48 49 46 46 42 35 36 34 33 31 35 34 33 31 31 35 31 38 37 40 37 36 34 33 34 33 32 31 31 30 29 26 24 20 10 10 15 16 20 19 21 26 34 39 35 30 25 25 25 25 24 23 13 13 15 15 16 18 18 21 20 20 20 23 20 23 17 20 18 21 29 28 22 22 27 26 35 33 33 38 39 40 51 56 59 59
39 39 44 49 49 47 40 30 29 29 32 34 35 31 35 32 34 30 29 31 37 36 33 33 33 36 33 35 34 32 32 29 29 26 24 21 15 13 15 20 20 20 22 28 30 38 29 32 29 24 20 21 23 18 14 13 14 16 18 19 18 23 19 21 19 21 19 25 22 21 21 21 26 28 36 32 31 36 35 35 34 40 41 44 53 56 59 59
40 41 43 46 47 45 36 36 31 32 33 32 30 31 31 31 33 30 30 29 32 40 34 33 35 34 35 36 35 34 34 32 30 30 28 24 20 10 17 20 19 25 25 30 36 38 33 32 30 23 16 13 16 15 12 13 14 20 20 19 20 18 18 20 19 19 20 27 21 26 24 24 26 31 34 31 27 33 38 37 37 42 42 45 54 57 59 59
38 31 33 39 44 44 42 42 40 36 30 30 30 31 33 28 28 31 29 29 33 39 38 37 39 37 34 35 34 33 31 31 31 29 25 22 17 10 15 18 16 22 32 33 38 40 29 34 33 29 27 24 26 26 29 17 16 15 18 19 20 20 19 21 24 21 19 23 24 27 26 25 28 35 37 40 31 30 35 36 35 37 41 45 53 57 59 59
40 33 29 29 30 34 29 29 31 32 30 32 30 34 31 28 27 27 29 28 31 32 40 33 33 29 32 33 34 32 32 30 36 27 25 18 23 23 13 14 16 27 38 35 38 33 35 33 32 32 31 30 28 27 26 25 15 15 17 20 20 21 22 24 24 23 27 21 21 33 32 35 37 38 39 41 43 40 42 43 32 37 39 42 51 56 57 59
31 33 34 34 31 28 29 29 32 31 32 31 31 35 29 27 27 27 30 32 31 30 32 39 36 35 35 33 35 31 31 31 29 24 29 29 27 25 27 11 10 30 36 26 34 37 31 25 31 32 32 32 32 31 31 27 23 16 16 20 23 24 25 24 25 24 26 23 21 33 38 34 39 40 39 39 46 44 47 47 45 46 43 44 50 55 58 59
35 34 34 35 30 31 31 33 33 32 31 32 28 29 28 28 27 29 29 29 29 28 33 29 31 36 36 38 36 32 32 28 26 32 32 32 32 30 28 20 13 15 18 28 27 36 32 27 34 34 33 32 32 32 33 33 19 16 18 20 22 22 23 25 26 23 23 26 34 36 40 37 41 42 40 45 44 47 43 50 50 48 49 50 54 54 57 58
33 33 32 35 34 32 32 31 31 31 28 31 26 30 28 28 28 29 29 28 27 29 32 31 35 38 36 36 37 33 34 35 35 31 34 33 31 32 29 27 23 22 18 26 24 38 35 27 36 35 33 31 33 33 33 32 34 26 18 19 20 20 22 21 25 25 26 26 32 32 33 32 42 46 42 44 46 48 47 48 52 51 50 51 54 56 56 57
37 37 36 34 31 31 31 30 29 28 25 27 26 30 29 28 28 29 29 30 30 29 31 32 39 36 36 37 36 36 38 38 38 37 37 35 30 32 30 31 29 30 28 32 29 39 38 31 38 35 30 30 31 34 35 36 36 33 26 22 20 22 23 24 24 24 25 25 28 28 28 33 42 45 46 45 46 48 47 45 48 50 51 51 53 55 56 57
38 38 38 35 30 31 29 28 28 28 25 28 30 29 29 29 30 30 28 32 31 31 32 32 39 37 35 31 35 37 38 38 37 36 35 34 29 27 28 28 29 30 32 29 31 32 38 37 30 30 28 27 31 35 33 34 33 27 25 23 25 26 24 26 23 27 29 32 28 24 27 35 46 48 46 44 43 44 47 43 52 50 51 52 51 53 55 56